Погода в Вонданке

Россия / Кировская область     59°05′20″N   47°49′53″E
темп.,
°C
ветер,
м/с
пор.,
м/с
влажн.,
%
обл.,
%
осадки,
мм/ч
давл.,
гПа
погр.,
м
13 мая, чт
чт1300:00+13вюв22670 0.0 102620
03:00+12юв23800 0.0 102641
06:00+16юв26725 0.0 1025150
09:00+22ююв354822 0.0 1024537
12:00+26ю46335 0.0 10242472
15:00+25ю4636100 0.0 10232460
18:00+22ююв37495 0.0 1021269
21:00+16ююв3116693 0.0 1021213
14 мая, пт
пт1400:00+16ююв31472100 0.0 1020410
03:00+15ююв41286100 1.1 1019394
06:00+16ю398725 0.3 1019398
09:00+21ююз3567100 0.4 1019956
12:00+23юз3556100 0.1 10181669
15:00+24юз4547100 0.1 10182032
18:00+21зюз36627 0.0 1018288
21:00+16зюз22827 0.0 101839
15 мая, сб
сб1500:00+14зюз11858 0.0 101911
03:00+13ююв11885 0.0 101911
06:00+17юв257599 0.0 1018171
09:00+21ююв3668100 0.0 1017559
12:00+25ю4854100 0.0 10151391
15:00+27ю594429 0.0 10131976
18:00+24ю5114814 0.0 10111072
21:00+18ююз413661 0.0 1012456
16 мая, вс
вс1600:00+17ююз412676 0.0 1012457
03:00+14ю28894 0.0 1012174
06:00+17ююз411784 0.0 1011415
09:00+22юз59566 0.0 10111286
12:00+23юз6104029 0.0 10111883
15:00+24юз5114362 0.0 10112163
18:00+21юз595412 0.0 10111642
21:00+15юз24830 0.1 101283
17 мая, пн
пн1700:00+13юз29915 0.0 1012206
03:00+12юз310965 0.0 1013245
06:00+15зюз36837 0.0 1013349
09:00+19зюз4663100 0.0 10141038
12:00+23з464842 0.1 10141963
15:00+19з256384 0.3 1015218
18:00+20зсз356320 0.1 1016440
21:00+15с1183100 0.2 101711